TimeEST,TemperatureF,Dew PointF,Humidity,Sea Level PressureIn,VisibilityMPH,Wind Direction,Wind SpeedMPH,Gust SpeedMPH,PrecipitationIn,Events,Conditions,WindDirDegrees,DateUTC
12:53 AM,35.1,27.0,72,29.99,10.0,ENE,8.1,-,N/A,,Mostly Cloudy,60,2012-11-07 05:53:00
1:53 AM,33.1,25.0,72,29.99,10.0,NE,8.1,-,N/A,,Clear,40,2012-11-07 06:53:00
2:53 AM,32.0,24.1,73,30.00,10.0,NNE,5.8,-,N/A,,Clear,30,2012-11-07 07:53:00
3:53 AM,30.0,23.0,75,30.00,10.0,NNE,6.9,-,N/A,,Clear,30,2012-11-07 08:53:00
4:53 AM,30.0,21.9,72,30.01,10.0,NNE,6.9,-,N/A,,Clear,30,2012-11-07 09:53:00
5:53 AM,32.0,24.1,73,30.01,10.0,NNE,9.2,-,N/A,,Mostly Cloudy,30,2012-11-07 10:53:00
6:53 AM,33.1,25.0,72,30.03,10.0,NNE,8.1,-,N/A,,Mostly Cloudy,20,2012-11-07 11:53:00
7:53 AM,32.0,25.0,75,30.04,8.0,NNE,5.8,-,N/A,,Clear,30,2012-11-07 12:53:00
8:53 AM,37.9,28.9,70,30.06,8.0,NE,8.1,-,0.01,,Clear,40,2012-11-07 13:53:00
9:53 AM,43.0,30.9,62,30.06,9.0,NNE,8.1,-,N/A,,Clear,30,2012-11-07 14:53:00
10:53 AM,46.0,32.0,58,30.08,9.0,ENE,6.9,-,N/A,,Clear,60,2012-11-07 15:53:00
11:53 AM,48.9,33.1,54,30.08,10.0,NE,10.4,-,N/A,,Clear,50,2012-11-07 16:53:00
12:53 PM,51.1,33.1,50,30.06,10.0,NE,9.2,-,N/A,,Overcast,40,2012-11-07 17:53:00
1:53 PM,50.0,30.9,48,30.06,10.0,NE,8.1,-,N/A,,Mostly Cloudy,50,2012-11-07 18:53:00
2:53 PM,51.1,28.0,41,30.06,10.0,ENE,4.6,-,N/A,,Clear,60,2012-11-07 19:53:00
3:53 PM,50.0,26.1,39,30.06,10.0,ENE,5.8,-,N/A,,Clear,60,2012-11-07 20:53:00
4:53 PM,46.0,26.1,46,30.09,10.0,ENE,5.8,-,N/A,,Clear,70,2012-11-07 21:53:00
6:53 PM,37.9,24.1,57,30.12,10.0,Calm,Calm,-,N/A,,Clear,0,2012-11-07 23:53:00
7:53 PM,32.0,21.9,66,30.14,10.0,ENE,6.9,-,N/A,,Clear,60,2012-11-08 00:53:00
8:53 PM,36.0,26.1,67,30.15,10.0,NNE,5.8,-,N/A,,Clear,30,2012-11-08 01:53:00
9:53 PM,34.0,26.1,73,30.16,10.0,Calm,Calm,-,N/A,,Clear,0,2012-11-08 02:53:00
10:53 PM,32.0,25.0,75,30.16,10.0,North,3.5,-,N/A,,Clear,10,2012-11-08 03:53:00
11:53 PM,30.0,24.1,79,30.17,9.0,NNW,3.5,-,N/A,,Clear,330,2012-11-08 04:53:00